Location: Unspecified
(52.0000°N, 4.4000°E)
Time: 10:00:38
(UTC+00:00)

Cosmos 2333 Rocket - Pass Details

Date: 14 May 2025
Orbit: 840 x 862 km, 70.8° (Epoch: 23 June)

Event Time Altitude Azimuth Distance (km) Brightness Sun altitude
Rises 23:04:16 0° 329° (NNW) 3,446 6.6 -18.7°
Reaches altitude 10° 23:06:55 10° 337° (NNW) 2,504 5.8 -18.8°
Maximum altitude 23:12:19 40° 47° (NE) 1,241 3.3 -18.9°
Enters shadow 23:17:30 11° 116° (ESE) 2,420 4.3 -19.0°
